Regional Weather Roundup
Issued by NWS Cleveland, OH

Home | Current Version | Previous Version | Graphics & Text | Print | Product List | Glossary On
Versions: 1 2 3 4 5 6 7 8 9 10 11 12 13 14 15 16 17 18 19 20 21 22 23 24 25 26 27 28 29 30 31 32 33 34 35 36 37 38 39 40 41 42 43 44 45 46 47 48 49 50
000
ASUS41 KCLE 192110
RWRCLE
OHIO REGIONAL WEATHER ROUNDUP
NATIONAL WEATHER SERVICE CLEVELAND, OH
500 PM EDT SUN APR 19 2015

NOTE: "FAIR" INDICATES FEW OR NO CLOUDS BELOW 12,000 FEET WITH NO
SIGNIFICANT WEATHER AND/OR OBSTRUCTIONS TO VISIBILITY.

OHZ001>008-015>018-024>027-034-035-043-044-192200-
   NORTHWEST OHIO

CITY           SKY/WX    TMP DP  RH WIND       PRES   REMARKS
DEFIANCE       LGT RAIN  51  46  83 E15G22    29.66F
FINDLAY        RAIN      63  55  75 SE21G32   29.66F
TOLEDO EXPRESS LGT RAIN  47  40  76 E13G23    29.71F
TOLEDO EXEC    LGT RAIN  49  38  65 NE14      29.72F
LIMA           LGT RAIN  62  58  86 E17G25    29.61F FOG
$$

OHZ009>014-019>023-028>033-038-089-192200-
   NORTHEAST OHIO

CITY           SKY/WX    TMP DP  RH WIND       PRES   REMARKS
CLE-HOPKINS    CLOUDY    71  40  32 SE20G26   29.76F
CLE-LAKEFRONT  CLOUDY    73  39  29 SE20G29   29.74F
CUY CO. ARPT   CLOUDY    73  41  31 SE16      29.78F
LORAIN-ELYRIA  CLOUDY    71  43  36 SE20G26   29.73F
ASHTABULA      CLOUDY    72  36  26 SE13G25   29.82F
AKRON-CANTON   CLOUDY    68  42  38 SE17G30   29.79F
WOOSTER        LGT RAIN  65  46  50 SE15G28   29.76F
MANSFIELD      LGT RAIN  63  53  70 S20G30    29.73F
YOUNGSTOWN     CLOUDY    69  38  32 SE16G29   29.83S
$$

OHZ042-051>053-060>062-070>072-077>081-192200-
  SOUTHWEST OHIO

CITY           SKY/WX    TMP DP  RH WIND       PRES   REMARKS
CINC-COVINGTON LGT RAIN  64  62  93 SE17G23   29.50F
CINC-LUNKEN    CLOUDY    65  62  90 SE15G28   29.52F
HAMILTON       HVY RAIN  64  62  93 SE7       29.52F FOG
DAYTON         HVY RAIN  62  59  90 E22G35    29.56F FOG
WRIGHT-PAT AFB LGT RAIN  61  60  96 E18G29    29.56F FOG
DAYTON GENERAL LGT RAIN  62  60  93 SE16G25   29.54F FOG
WILMINGTON     LGT RAIN  61  59  93 S14G22    29.57F
$$

OHZ036-037-039>041-045>050-054>059-063>069-073>076-082>088-192200-
  CENTRAL AND SOUTHEAST OHIO

CITY           SKY/WX    TMP DP  RH WIND       PRES   REMARKS
COLUMBUS       RAIN      61  55  82 E16G30    29.66F
OSU AIRPORT    RAIN      60  54  80 SE20G32   29.66F
BOLTON FIELD   RAIN      59  57  94 E23G29    29.67F
RICKENBACK AFB   N/A     59  55  88 E16G28    29.66F
NEWARK         CLOUDY    62  54  74 E15       29.71F
MARION         LGT RAIN  60  54  80 SE23G31   29.69F
LANCASTER      LGT RAIN  60  57  89 SE21G31   29.68F FOG
ZANESVILLE     LGT RAIN  60  53  77 SE12G21   29.75F
NEW PHILLY     LGT RAIN  69  45  41 SE15G23   29.78F
$$


USA.gov is the U.S. government's official web portal to all federal, state and local government web resources and services.